EW9525 Weather Reports


time (UTC)temp
C
wind
direction
speed
KPH
gust
KPH
rain 1hr
cm
rain 24hr
cm
rain mn
cm
humidity
%
barometer
mb
20260507230028 23 266 8.0 16.1 0.00 0.05 0.00 29 1008.9
20260507224526 22 226 1.6 4.8 0.00 0.05 0.00 28 1009.1
20260507223025 22 245 0.0 4.8 0.00 0.05 0.00 33 1009.2
20260507221522 22 295 3.2 11.3 0.00 0.05 0.00 32 1009.4
20260507220021 22 262 3.2 9.7 0.00 0.05 0.00 31 1009.6
20260507214522 23 263 4.8 8.0 0.00 0.05 0.00 27 1009.6
20260507213026 22 254 4.8 9.7 0.00 0.05 0.00 29 1009.8
20260507211516 22 279 1.6 6.4 0.00 0.05 0.00 29 1010.1
20260507210015 22 257 0.0 12.9 0.00 0.05 0.00 27 1010.2
20260507204514 22 303 8.0 24.1 0.00 0.05 0.00 31 1010.4
20260507203016 23 281 8.0 16.1 0.00 0.05 0.00 28 1010.6
20260507201512 23 304 8.0 25.7 0.00 0.05 0.00 28 1010.9
20260507200017 23 254 1.6 16.1 0.00 0.20 0.00 27 1011.1
20260507194507 22 256 3.2 19.3 0.00 0.20 0.00 29 1011.2
20260507193111 22 261 9.7 20.9 0.00 0.20 0.00 32 1011.3
20260507191504 22 266 12.9 20.9 0.00 0.20 0.00 29 1011.5
20260507190004 22 255 8.0 14.5 0.00 0.20 0.00 30 1011.6
20260507184558 22 267 8.0 16.1 0.00 0.20 0.00 31 1011.8
20260507183100 21 257 8.0 17.7 0.00 0.20 0.00 32 1012.0
20260507181554 21 248 12.9 22.5 0.00 0.20 0.00 30 1012.2
20260507180101 21 290 6.4 20.9 0.00 0.20 0.00 34 1012.4
20260507174552 21 248 9.7 25.7 0.00 0.20 0.00 32 1012.4
20260507173054 20 287 11.3 22.5 0.00 0.20 0.00 36 1012.7
20260507171546 20 245 12.9 30.6 0.00 0.20 0.00 33 1012.9
20260507170041 18 256 16.1 27.4 0.00 0.20 0.00 37 1013.1
20260507164541 18 240 11.3 27.4 0.00 0.20 0.00 37 1013.2
20260507163036 18 257 14.5 32.2 0.00 0.20 0.00 41 1013.2
20260507161533 17 251 14.5 25.7 0.00 0.20 0.00 44 1013.3
20260507160030 16 215 14.5 27.4 0.00 0.20 0.00 47 1013.3
20260507154525 15 272 12.9 22.5 0.00 0.20 0.00 50 1013.6
20260507153022 14 224 12.9 24.1 0.00 0.20 0.00 50 1013.8
20260507151518 13 216 9.7 24.1 0.00 0.20 0.00 52 1013.7
20260507150017 13 224 16.1 24.1 0.00 0.20 0.00 51 1014.0
20260507144512 12 212 16.1 27.4 0.00 0.20 0.00 51 1014.0
20260507143008 12 210 12.9 24.1 0.00 0.20 0.00 56 1013.9
20260507141504 11 207 14.5 22.5 0.00 0.20 0.00 59 1014.0
20260507140125 10 209 14.5 20.9 0.00 0.20 0.00 62 1013.9
20260507134556 9 212 6.4 16.1 0.00 0.20 0.00 73 1014.1
20260507133052 7 212 11.3 17.7 0.00 0.20 0.00 78 1014.2
20260507131558 5 195 11.3 16.1 0.00 0.20 0.00 84 1014.1
20260507130050 4 186 8.0 12.9 0.00 0.20 0.00 87 1014.0
20260507124549 3 185 6.4 9.7 0.00 0.20 0.00 87 1014.2
20260507123052 2 217 1.6 4.8 0.00 0.20 0.00 87 1014.0
20260507121543 2 183 3.2 8.0 0.00 0.20 0.00 88 1013.9
20260507120138 1 181 4.8 8.0 0.00 0.20 0.00 88 1014.0
20260507114543 1 173 4.8 9.7 0.00 0.25 0.00 89 1014.2
20260507113038 1 179 6.4 11.3 0.00 0.25 0.00 90 1014.2
20260507111535 1 173 3.2 8.0 0.00 0.25 0.00 91 1014.3
20260507110032 0 181 3.2 4.8 0.00 0.28 0.00 90 1014.5
20260507104529 1 153 1.6 6.4 0.00 0.28 0.00 90 1014.6
20260507103029 1 179 3.2 6.4 0.00 0.28 0.00 90 1014.8
20260507101534 1 170 3.2 6.4 0.00 0.28 0.00 90 1015.0
20260507100032 1 174 3.2 6.4 0.00 0.28 0.00 90 1015.2
20260507094523 1 160 3.2 8.0 0.00 0.28 0.00 90 1015.4
20260507093035 1 187 3.2 6.4 0.00 0.28 0.00 89 1015.8
20260507091517 1 186 3.2 6.4 0.00 0.28 0.00 89 1015.7
20260507090025 1 175 3.2 8.0 0.00 0.28 0.00 88 1016.1
20260507084511 2 183 6.4 12.9 0.00 0.28 0.00 88 1016.3
20260507083015 2 190 6.4 12.9 0.00 0.28 0.00 87 1016.6
20260507081506 2 167 8.0 16.1 0.00 0.28 0.00 87 1016.7
20260507080006 3 187 8.0 17.7 0.00 0.30 0.00 87 1016.9
20260507074513 3 193 11.3 16.1 0.00 0.30 0.00 87 1016.9
20260507073002 2 174 6.4 11.3 0.00 0.30 0.00 88 1017.1
20260507071613 3 189 6.4 11.3 0.00 0.30 0.00 87 1017.2
20260507070058 3 200 9.7 14.5 0.00 0.33 0.00 87 1017.4
20260507064558 3 177 8.0 16.1 0.00 0.33 0.00 88 1017.8
20260507063055 3 184 4.8 9.7 0.00 0.33 0.00 88 1018.0
20260507061551 3 192 6.4 11.3 0.00 0.33 0.00 88 1017.9
20260507060049 3 179 6.4 14.5 0.00 0.41 0.00 88 1018.0
20260507054552 3 209 8.0 14.5 0.00 0.41 0.00 88 1018.3
20260507053048 3 195 8.0 14.5 0.00 0.41 0.00 88 1018.4
20260507051544 3 206 6.4 14.5 0.00 0.41 0.00 88 1018.4
20260507050040 3 180 4.8 9.7 0.00 0.46 0.41 89 1018.6
20260507044640 3 190 4.8 8.0 0.00 0.46 0.41 89 1018.6
20260507043040 3 167 3.2 8.0 0.00 0.46 0.41 88 1018.8
20260507041538 3 184 4.8 9.7 0.00 0.46 0.41 88 1018.8
20260507040040 3 179 4.8 8.0 0.00 0.58 0.41 88 1019.0
20260507034535 3 184 3.2 6.4 0.00 0.58 0.41 88 1019.0
20260507033038 3 193 1.6 6.4 0.00 0.58 0.41 87 1019.1
20260507031531 3 219 1.6 3.2 0.00 0.58 0.41 86 1019.2
20260507030032 3 195 1.6 4.8 0.00 0.64 0.41 85 1019.2
20260507024533 4 182 1.6 4.8 0.00 0.64 0.41 82 1019.0
20260507023030 5 176 3.2 6.4 0.00 0.64 0.41 81 1019.0
20260507021528 6 185 3.2 4.8 0.00 0.64 0.41 79 1018.9
20260507020030 6 169 3.2 8.0 0.00 0.66 0.41 76 1018.7
20260507014528 7 163 3.2 8.0 0.00 0.66 0.41 73 1018.6
20260507013035 8 153 4.8 9.7 0.00 0.66 0.41 72 1018.7
20260507011536 9 160 4.8 8.0 0.00 0.66 0.41 73 1018.8
20260507010028 9 153 4.8 8.0 0.00 0.66 0.41 73 1018.9
20260507004525 8 130 3.2 8.0 0.00 0.66 0.41 73 1019.0
20260507003025 10 149 6.4 12.9 0.00 0.66 0.41 64 1019.0
20260507001529 10 184 3.2 8.0 0.00 0.66 0.41 69 1019.2
20260507000024 10 190 3.2 9.7 0.00 0.66 0.41 68 1019.2
20260506234530 10 125 3.2 12.9 0.00 0.66 0.41 67 1019.4
20260506233025 10 115 4.8 9.7 0.03 0.66 0.41 68 1019.3
20260506231524 10 155 3.2 8.0 0.05 0.66 0.41 69 1019.5